Theta_e
313 312 312 311 310 309 307 307 307 306 306 306 305 305 305 306 307 308 309 310 311 313 314 313 313 313 314 315 317 318 318 319 320 320 320 322 326 327 329 330 330 330 330 329 328 328 329 328 328 329 329 330 330 329 329 328 327 327 327 327 325 325 326
312 312 312 312 311 309 308 308 307 307 307 306 306 306 305 305 305 305 305 306 308 310 312 313 314 314 313 313 314 316 318 320 322 323 323 323 322 322 323 326 329 331 331 330 328 328 329 328 328 328 328 329 330 330 329 329 328 328 328 327 326 325 326
313 313 313 312 311 309 308 308 308 307 307 307 306 306 306 305 305 305 305 304 305 306 307 309 311 313 315 315 315 315 317 319 322 324 326 325 324 323 323 324 327 329 331 331 328 327 329 329 327 326 326 327 329 330 330 329 328 328 328 328 327 326 326
314 314 313 312 311 310 309 308 308 308 307 307 307 306 306 306 306 306 305 305 305 305 305 305 306 307 310 312 314 314 315 317 320 322 324 325 325 325 325 326 326 326 328 330 329 327 328 328 327 325 325 326 328 329 330 330 329 328 328 327 327 327 326
314 314 313 312 310 310 310 308 308 308 307 307 307 307 307 306 306 305 305 305 305 305 305 304 304 304 305 305 306 308 311 314 316 319 321 322 323 324 324 326 326 325 326 328 329 328 327 326 325 324 324 325 326 327 327 328 328 328 328 328 328 327 327
314 314 313 311 310 310 310 308 308 308 307 307 307 307 307 306 306 305 305 305 305 305 304 304 304 304 304 304 303 303 306 309 312 316 319 320 321 322 322 323 324 325 325 325 327 328 327 326 325 325 325 325 325 326 326 326 326 326 326 328 328 328 327
314 314 313 311 310 310 309 308 308 308 307 307 307 307 306 306 306 305 305 305 304 304 304 303 303 303 303 304 304 303 303 304 307 310 314 318 320 321 321 321 322 324 324 324 325 326 327 327 328 327 327 327 326 326 326 325 326 326 325 326 327 328 328
314 314 313 311 310 310 309 309 308 307 306 306 306 306 306 306 306 305 305 305 304 303 303 302 302 303 303 304 304 303 303 302 303 305 308 312 315 318 320 320 321 322 323 323 324 325 325 326 326 326 326 327 327 326 326 326 325 325 325 325 325 326 328
312 312 313 312 310 309 309 309 308 307 306 306 306 306 306 306 306 305 305 304 303 303 302 302 302 303 303 304 304 303 303 302 302 303 305 307 309 312 317 319 321 321 321 321 322 323 324 324 324 324 325 326 327 327 326 325 325 325 324 325 325 324 327
311 311 312 311 310 309 309 309 308 307 306 306 306 306 306 306 305 305 304 303 303 303 302 302 302 303 303 304 304 304 304 303 303 303 304 306 307 308 310 314 318 319 319 319 320 321 322 323 323 324 324 325 326 326 326 325 325 325 324 324 325 324 326
310 310 310 311 310 310 310 309 308 307 306 306 306 306 306 305 305 304 303 303 303 303 302 302 302 302 303 303 304 305 305 305 304 304 304 305 306 308 309 311 313 316 317 318 318 318 319 321 321 322 324 324 325 325 326 326 325 325 324 324 324 324 324
310 310 310 310 310 310 310 309 307 306 306 306 306 306 306 305 304 303 303 303 303 303 302 302 302 302 302 303 304 304 305 306 305 305 304 304 305 307 310 312 314 315 316 317 319 318 318 319 320 320 321 323 324 325 325 326 326 324 323 322 323 324 324
310 310 310 310 310 310 309 308 307 306 306 306 306 306 305 304 303 303 303 303 303 303 303 302 302 302 302 303 303 304 305 306 307 306 305 305 305 306 309 312 314 315 317 319 319 319 318 318 319 320 321 322 323 324 325 326 326 324 322 322 322 324 325
310 310 309 309 309 309 309 308 307 307 306 306 306 305 305 304 303 303 303 303 303 303 303 302 302 303 303 303 303 303 304 305 306 307 307 307 306 306 307 310 311 313 317 319 320 319 319 318 319 320 321 321 321 321 323 325 326 324 322 322 323 324 325
310 310 309 309 309 309 309 308 307 307 306 306 306 305 304 303 303 303 303 303 303 303 303 303 303 304 304 304 304 303 303 304 305 306 307 308 308 308 307 308 309 311 314 318 320 320 320 320 320 320 320 320 321 320 321 324 326 324 322 322 323 324 325
310 310 309 309 309 309 308 308 307 307 306 306 305 304 303 303 303 303 303 303 303 303 303 303 304 304 304 304 304 304 304 303 303 304 304 306 308 309 309 308 307 308 311 316 319 319 320 320 320 320 320 321 321 321 322 323 324 324 323 322 322 323 324
310 310 309 309 309 308 308 308 307 307 306 305 304 303 303 303 303 303 303 303 303 303 303 303 304 304 304 304 304 304 303 303 303 303 304 305 307 309 310 310 309 307 308 312 316 319 320 320 320 321 321 321 321 322 322 322 322 322 321 320 320 321 322
310 310 309 309 309 309 308 307 307 306 305 304 303 303 303 303 303 303 303 303 303 303 303 303 303 303 303 303 303 303 303 303 304 304 305 306 307 308 309 310 311 310 308 309 311 316 319 319 320 320 320 321 321 322 322 322 322 321 321 320 320 321 322
310 310 310 309 309 309 308 307 306 305 304 303 303 303 303 303 303 303 303 302 302 302 302 303 302 302 302 302 302 303 303 304 304 305 306 306 307 308 308 308 309 310 310 309 308 311 314 318 319 320 320 320 321 321 322 322 322 321 321 321 321 322 324
311 311 311 310 310 309 308 307 306 304 304 303 303 303 303 303 303 303 302 302 302 302 303 303 303 302 302 302 302 302 303 303 303 303 304 304 305 306 307 307 307 308 309 310 310 309 310 313 317 319 319 319 320 320 320 321 322 321 322 322 322 322 324
312 312 311 311 310 309 308 307 306 304 304 304 304 304 304 303 303 302 302 302 302 302 303 303 303 302 302 302 302 302 302 302 302 302 302 302 303 304 304 304 305 305 306 307 309 309 309 310 312 315 318 318 319 319 319 319 320 321 322 323 323 322 323
313 312 312 311 310 309 308 307 306 305 304 304 304 304 303 303 302 302 302 302 302 302 302 302 302 301 301 301 301 302 302 301 302 302 302 302 302 302 303 303 303 304 304 305 306 307 309 309 310 311 314 316 317 317 317 318 319 321 323 324 324 323 323
313 313 312 311 310 309 308 307 305 304 304 304 304 304 303 303 303 303 303 302 302 302 301 301 301 300 300 300 300 300 301 301 301 301 301 301 301 301 301 302 302 303 303 303 304 304 306 308 309 309 310 313 315 315 316 317 318 319 320 321 323 324 324
313 313 312 310 310 309 307 306 305 305 305 304 304 304 303 303 303 303 303 302 302 301 301 300 300 299 299 299 299 299 299 300 300 300 300 300 300 300 300 300 300 301 301 302 302 303 304 305 306 308 308 310 313 315 315 316 317 318 318 318 320 322 324
313 312 311 310 309 307 305 305 305 305 305 304 304 304 303 303 303 303 303 302 302 301 300 299 298 298 298 298 298 298 298 298 298 298 299 299 299 299 299 299 299 299 300 301 301 301 302 303 304 306 307 308 310 313 315 315 316 316 317 317 317 319 321
312 311 310 309 307 306 305 305 305 305 305 304 304 303 303 303 303 302 302 302 301 300 299 297 297 298 298 298 298 298 297 297 297 297 297 297 297 298 298 298 298 298 299 299 299 300 301 301 302 303 304 306 307 310 312 314 315 316 316 316 316 317 319
311 310 309 307 305 305 305 305 305 305 304 304 303 303 303 303 302 302 301 301 300 299 298 297 298 298 298 298 298 298 297 297 297 297 296 296 296 296 296 297 297 297 297 298 298 299 300 300 301 301 302 304 306 308 309 311 313 315 316 316 316 316 316
310 309 308 306 305 304 305 305 305 304 304 303 303 302 302 301 301 301 300 300 300 299 298 298 298 298 298 298 297 297 297 297 297 296 296 296 295 295 296 296 296 296 296 296 297 298 299 299 300 300 301 302 305 308 309 310 311 312 314 315 316 315 315
310 308 306 305 304 305 305 305 305 304 304 303 302 302 301 301 300 300 300 299 298 298 297 297 298 298 298 297 297 297 296 296 295 295 295 295 295 295 295 295 295 295 295 296 296 296 297 298 298 299 300 300 302 306 309 310 310 310 311 312 314 314 313
308 306 304 304 305 305 305 305 305 304 303 303 302 301 300 300 299 299 298 297 296 296 296 297 297 297 297 297 296 296 295 295 294 294 294 294 294 294 294 294 294 295 295 295 296 296 297 297 297 298 298 299 300 302 306 309 311 312 312 312 313 313 313
306 304 304 305 305 305 305 305 304 303 303 302 301 300 299 299 298 297 295 295 295 296 296 296 296 296 296 295 295 294 294 294 293 293 293 293 293 293 293 293 294 294 295 295 295 296 296 297 297 297 298 299 299 300 303 307 310 312 313 314 315 315 314
304 304 305 305 305 304 304 303 302 302 300 300 299 299 298 297 296 294 294 294 295 295 295 294 294 294 294 294 294 293 293 293 293 293 293 293 293 293 293 293 293 294 294 294 295 295 296 297 297 297 298 298 299 300 302 304 307 310 312 314 315 316 315
302 302 302 302 301 301 301 300 300 299 298 298 298 298 296 295 294 293 294 294 294 294 294 293 293 293 293 293 293 293 293 293 292 292 292 292 293 293 293 293 293 293 294 294 294 295 295 296 297 297 298 298 298 300 301 302 303 306 309 311 314 316 316
300 300 299 299 299 299 299 299 299 299 298 298 298 296 294 293 293 293 293 294 294 294 293 293 292 292 292 292 292 292 292 292 292 292 292 292 292 292 292 293 293 293 293 294 294 295 295 296 296 297 297 297 297 298 300 300 301 303 306 309 313 315 316
298 298 298 299 299 299 299 299 298 298 298 298 298 296 294 293 292 292 292 293 294 293 293 292 292 292 292 292 292 292 292 292 292 292 292 292 292 292 292 292 293 293 293 294 294 295 296 296 296 297 297 297 297 298 299 300 301 302 304 308 312 315 315
298 298 298 299 298 298 298 298 298 298 298 298 298 297 296 294 293 292 292 293 293 293 293 292 292 292 292 292 292 292 292 292 292 292 292 291 292 292 292 292 292 293 293 293 294 295 295 296 296 296 297 298 298 299 300 300 301 301 303 306 310 312 314
298 298 299 298 298 298 298 298 298 298 298 298 297 297 296 295 293 291 292 292 293 293 292 292 292 292 292 292 292 292 292 292 292 292 292 292 292 292 292 292 293 293 293 293 293 294 295 295 295 296 297 297 298 299 299 300 300 300 301 303 307 310 311
Wind_Speed
9 8 6 4 2 3 5 6 8 9 10 10 10 8 7 4 1 1 3 5 8 9 11 12 12 12 12 12 13 14 15 15 14 16 19 21 24 28 29 29 30 30 29 28 26 20 14 13 14 16 21 24 27 28 26 26 27 28 28 27 25 26 27
11 10 8 6 3 1 2 4 6 7 7 8 8 8 7 7 5 4 3 2 3 5 8 10 11 13 14 14 15 16 16 16 16 16 18 19 22 24 26 28 29 31 31 31 31 29 23 19 18 16 14 18 25 28 27 26 28 28 28 26 24 24 26
11 11 9 7 5 3 2 2 3 5 5 6 6 5 6 6 6 6 6 5 4 3 4 6 9 11 14 15 17 18 18 19 18 17 17 18 19 22 23 24 26 28 31 32 33 34 32 28 27 24 18 17 20 25 27 27 28 29 29 27 25 25 26
11 12 10 8 7 7 5 3 4 4 5 5 5 5 4 5 5 6 6 6 6 6 5 6 7 8 11 14 16 18 19 20 20 19 19 18 17 19 21 23 25 26 29 31 32 35 35 33 31 30 28 26 22 22 23 25 27 27 28 29 29 27 27
12 12 11 9 10 9 7 5 4 4 4 5 6 6 6 6 7 7 8 8 9 9 9 10 10 11 12 13 14 16 18 20 21 20 20 19 18 18 19 22 24 26 27 28 30 33 35 34 34 34 35 33 30 28 25 24 26 26 26 29 32 31 29
14 14 13 12 12 11 8 7 5 4 4 5 6 7 8 8 8 8 9 10 11 11 12 13 14 15 16 16 15 16 16 18 19 21 22 21 20 20 20 20 21 23 25 27 29 32 34 35 35 36 38 36 35 35 32 30 30 29 27 26 29 32 32
15 15 14 14 14 12 11 9 7 5 4 5 5 7 8 9 10 11 12 13 13 14 15 15 15 16 17 18 18 17 18 18 19 20 22 23 22 21 22 22 21 22 24 26 29 31 33 34 35 36 37 36 35 36 36 34 32 31 30 28 25 27 32
15 15 15 15 15 14 13 11 9 7 6 6 6 7 9 11 12 13 14 16 16 17 18 17 15 14 15 17 19 19 19 20 20 20 21 23 24 24 23 23 24 24 25 26 28 31 32 32 34 35 36 35 34 35 36 35 33 33 33 32 29 26 29
14 15 16 16 16 16 15 13 11 9 8 7 8 9 10 12 14 15 16 18 18 18 19 19 18 16 14 15 17 19 19 20 21 22 22 23 25 26 25 24 25 26 27 26 27 29 30 31 33 34 35 36 34 34 34 34 34 36 36 35 33 28 27
13 14 15 17 17 18 17 14 12 11 10 10 10 10 12 13 15 16 18 19 19 19 19 20 20 20 18 16 17 18 19 19 21 23 24 25 26 27 28 27 27 28 29 28 28 29 29 30 32 33 35 36 36 35 34 33 35 38 39 38 35 29 25
12 12 14 16 18 18 17 15 13 12 12 12 12 13 14 15 16 17 18 19 20 20 19 20 20 21 21 20 20 20 20 19 21 23 25 26 27 27 28 29 29 29 30 29 30 31 30 30 30 31 33 35 38 39 38 35 36 39 39 38 37 31 25
11 12 13 15 17 17 17 15 14 14 14 14 14 14 15 16 17 18 19 20 21 21 21 21 21 21 21 22 22 22 22 22 22 23 25 27 28 28 29 29 29 29 29 28 28 29 31 30 30 30 33 34 37 40 42 40 39 41 41 38 38 35 27
12 12 13 15 16 17 16 15 15 15 15 15 14 14 15 17 18 19 20 21 22 23 24 24 24 23 21 22 22 23 24 24 24 24 24 26 28 30 30 31 30 30 29 27 25 26 29 30 31 30 31 33 34 36 40 42 42 44 42 38 38 35 29
12 13 13 15 16 16 16 17 17 16 16 15 15 15 16 17 18 19 21 23 24 25 26 26 25 24 23 23 23 24 25 25 26 25 24 25 26 29 32 33 33 32 31 29 26 25 25 27 29 31 31 32 34 35 36 39 42 43 41 38 38 36 33
14 14 14 15 16 16 16 17 17 17 16 15 15 16 17 18 19 21 22 24 25 26 26 26 25 24 24 25 26 27 27 27 26 25 24 24 24 26 29 33 35 34 33 32 30 27 24 22 24 29 32 33 34 35 35 37 39 40 40 38 37 37 36
16 15 15 15 15 16 16 16 16 16 15 15 15 15 17 18 19 21 23 24 25 26 26 25 24 22 23 25 28 30 31 30 28 27 26 27 26 26 26 29 33 36 35 35 34 31 28 24 21 24 29 31 33 33 32 34 37 38 39 38 37 37 38
17 17 16 16 15 15 15 15 15 15 14 14 15 15 16 17 19 21 23 24 25 26 25 24 25 26 27 29 31 33 33 32 31 30 29 28 28 28 29 28 28 31 35 37 38 35 32 29 26 23 24 27 31 33 32 32 34 36 37 39 39 38 39
18 18 17 16 16 16 15 15 14 13 13 13 14 15 16 17 19 22 23 25 26 26 26 27 28 30 30 31 32 32 31 30 29 29 29 28 29 30 31 31 29 28 30 35 39 39 36 33 31 28 25 25 27 30 32 33 33 35 37 40 41 40 39
19 18 18 17 16 16 15 14 13 12 12 12 13 14 16 18 21 23 25 26 27 27 27 27 29 30 30 29 28 27 27 27 27 28 29 29 29 30 32 33 32 31 31 31 34 38 40 38 35 32 30 27 26 27 29 32 34 36 39 41 41 41 40
19 18 17 16 16 15 14 13 12 11 11 12 13 15 17 19 22 24 26 26 27 26 26 27 28 29 28 28 27 27 26 26 27 28 29 29 29 30 31 32 32 32 33 32 31 33 37 40 40 37 34 32 30 29 30 32 34 36 39 41 42 42 42
19 18 17 15 15 14 14 12 12 11 12 13 14 16 18 21 23 24 25 25 25 25 25 27 27 28 28 27 27 28 28 28 28 29 30 30 30 31 32 32 32 32 32 33 33 32 33 37 40 42 40 36 34 33 32 33 33 34 37 41 42 41 41
20 18 16 16 15 14 13 12 12 12 12 14 15 17 20 22 23 24 23 23 24 24 25 25 26 26 27 27 27 27 27 28 29 31 32 33 33 33 33 33 33 33 33 33 34 34 33 33 36 41 44 42 39 37 35 33 32 31 33 36 38 39 40
20 18 17 16 15 14 13 12 12 12 13 15 17 19 20 21 22 22 22 23 25 26 27 27 27 27 27 27 27 27 28 30 31 32 34 35 37 37 37 37 37 37 37 37 36 36 35 33 33 36 41 44 44 42 39 37 35 31 30 31 33 36 38
20 19 18 17 16 14 12 11 11 13 15 16 18 19 19 19 20 21 23 25 27 28 29 30 29 29 28 27 27 28 30 32 33 35 36 37 38 39 39 39 39 39 40 40 40 39 38 36 34 33 36 41 45 45 43 42 41 37 33 32 33 34 35
20 19 19 17 14 11 9 10 12 14 16 17 17 17 17 19 21 23 25 27 28 30 31 31 30 30 29 28 28 29 30 32 33 35 37 38 40 40 40 40 39 39 40 40 40 40 39 39 37 35 35 36 41 45 46 44 44 44 41 38 37 37 36
20 19 17 14 10 8 8 11 13 15 16 16 16 16 18 21 23 24 26 28 31 32 32 31 31 31 31 32 32 33 33 34 35 36 37 38 40 41 42 42 42 41 41 41 40 39 39 39 39 38 38 36 35 39 45 48 47 47 46 44 42 42 42
18 16 13 9 7 7 10 12 14 15 15 15 15 17 19 21 23 26 27 29 32 33 32 32 31 31 32 33 34 35 35 36 38 40 41 41 42 42 42 43 44 44 43 43 42 40 39 39 38 38 39 38 35 33 36 43 48 49 49 49 49 48 48
16 14 10 7 7 9 11 13 14 14 13 12 15 17 20 22 25 27 28 30 32 33 33 32 31 31 33 34 36 37 38 39 41 42 43 43 43 44 43 43 45 45 45 45 44 43 41 40 40 40 40 40 38 34 32 35 40 45 49 51 52 53 52
16 11 7 7 8 10 11 13 13 12 12 13 16 19 22 24 26 28 30 31 33 34 33 32 32 33 35 36 37 39 40 41 41 41 42 42 43 44 44 44 44 45 45 45 44 43 41 40 41 43 44 44 42 39 37 35 35 38 43 46 48 50 51
13 8 6 8 9 10 10 11 12 13 14 17 20 23 25 26 28 30 32 33 33 33 33 33 34 35 36 37 38 39 39 38 38 39 41 42 43 44 45 44 44 45 45 45 43 41 39 38 39 42 45 46 45 44 43 40 35 35 37 39 40 42 43
8 6 7 8 9 10 11 12 13 16 18 21 23 24 26 27 29 31 32 32 32 33 34 35 35 36 37 36 36 36 35 36 38 40 42 43 43 44 45 45 44 44 45 44 42 41 40 39 39 41 43 44 45 46 45 43 40 37 35 34 35 37 37
8 8 9 10 10 11 13 14 16 18 19 21 22 23 26 28 29 30 31 31 32 33 34 34 34 35 37 35 34 33 34 37 40 42 43 44 44 44 45 45 43 43 44 44 41 40 40 40 41 41 41 42 46 47 44 43 43 41 38 35 34 34 35
8 7 8 8 10 11 12 12 13 15 17 18 20 23 26 27 28 30 32 33 33 34 35 35 34 33 33 33 32 32 34 38 41 43 43 44 44 45 44 44 44 44 43 43 41 40 39 40 42 42 41 43 48 48 43 41 43 43 40 37 34 33 33
4 3 3 4 5 7 8 9 12 15 17 18 20 23 24 24 27 33 34 34 34 35 35 35 34 32 31 30 30 31 35 38 39 41 42 43 43 45 45 44 45 44 42 42 41 39 39 39 40 42 43 46 48 46 42 41 42 44 42 37 32 32 33
3 3 4 4 6 8 8 10 14 16 18 19 22 24 23 24 29 36 38 36 35 35 34 34 32 31 31 31 31 32 34 36 36 37 40 43 44 45 45 44 44 43 42 41 39 38 39 38 38 40 42 43 43 41 39 38 37 41 45 40 31 29 31
6 6 4 4 6 6 7 10 14 16 18 21 23 25 25 26 30 37 39 38 37 36 35 33 32 31 32 32 33 32 33 33 33 35 39 43 44 45 46 45 44 43 42 42 40 39 39 38 39 40 40 39 38 37 36 36 35 38 43 45 38 29 27
6 4 1 2 4 4 7 10 13 15 18 21 24 25 25 25 30 37 40 40 39 38 36 35 33 33 34 35 35 34 33 33 34 35 39 42 43 44 45 45 44 43 42 42 42 41 40 41 42 42 40 39 37 36 36 37 37 36 39 46 46 35 25
Wind_Direction
209 222 245 267 305 15 24 30 35 36 36 41 47 55 65 67 49 279 254 249 249 245 245 247 245 240 238 240 246 249 249 248 252 255 255 255 254 253 252 249 248 248 246 243 241 235 226 224 221 220 230 238 243 248 250 245 243 249 255 259 259 256 256
225 230 243 255 261 319 3 21 26 31 37 40 40 44 56 62 60 53 34 349 287 266 261 259 256 251 247 244 242 244 247 247 251 257 259 258 257 256 257 255 253 250 248 244 240 235 232 237 237 228 226 235 241 243 245 246 247 253 257 260 260 256 254
225 226 242 254 255 265 285 357 3 6 19 28 30 31 40 47 46 43 33 23 10 339 299 277 264 258 256 253 250 248 247 246 250 259 263 263 262 259 256 256 254 252 248 241 237 237 236 239 244 244 238 237 241 241 239 242 246 252 257 257 258 257 255
227 231 244 252 252 259 270 297 328 346 357 359 0 0 6 16 17 13 7 359 351 343 332 312 294 278 269 263 260 259 255 250 249 256 263 266 269 266 258 254 252 252 252 246 239 239 240 240 245 248 245 242 243 240 237 238 242 247 252 253 254 253 251
238 243 246 247 249 254 263 278 292 316 330 332 338 336 334 344 351 348 341 337 333 329 328 322 313 303 291 282 274 267 262 258 254 254 258 262 267 271 265 258 254 251 252 254 248 245 245 246 250 253 252 251 250 248 244 241 243 248 252 251 250 250 248
241 247 244 242 250 254 255 256 263 280 305 317 323 323 321 324 326 324 324 326 327 325 321 316 309 300 292 285 279 271 264 260 258 254 253 255 259 265 267 265 262 255 251 253 253 250 250 251 254 256 257 256 255 255 254 255 257 260 262 256 249 248 246
245 248 244 243 249 254 254 256 261 266 272 286 296 301 305 307 311 315 320 323 323 321 316 310 305 297 286 277 271 267 263 258 256 254 253 253 254 259 263 263 264 262 257 253 252 252 252 252 252 255 258 258 256 256 257 259 263 263 262 260 257 252 246
252 253 249 247 249 251 255 258 263 269 271 273 276 284 293 300 308 314 318 321 322 322 322 320 317 309 293 277 267 263 261 259 256 254 253 253 254 256 258 261 263 263 262 259 255 253 252 253 254 255 257 256 254 255 257 257 259 262 263 262 264 263 251
253 255 250 247 249 251 254 258 263 270 276 278 280 285 291 299 307 312 316 318 321 324 327 327 325 322 310 286 270 264 262 260 257 254 251 251 252 253 253 255 259 261 261 262 260 256 254 253 254 256 257 255 253 253 255 256 256 260 263 262 264 268 260
253 255 251 246 247 251 254 257 261 267 274 279 283 287 292 300 308 312 315 316 320 325 329 329 325 320 314 301 281 269 264 262 259 255 253 251 250 250 251 251 253 256 260 262 261 259 259 259 257 256 256 255 253 251 252 255 256 258 261 264 264 265 259
257 256 252 248 247 251 255 256 258 264 270 276 282 289 297 306 311 312 314 317 322 326 327 326 322 315 310 306 296 282 272 264 259 257 255 254 252 250 248 249 251 253 258 262 264 262 262 263 262 259 258 256 252 249 249 253 257 259 262 265 264 262 259
252 252 250 250 250 253 255 255 256 260 266 274 283 292 300 306 309 313 317 322 324 325 325 324 322 319 310 304 300 294 283 270 262 258 256 255 254 252 249 247 247 250 253 258 264 265 263 263 262 261 259 258 255 251 249 250 255 259 261 264 265 262 259
248 248 246 248 251 253 254 253 255 259 266 274 283 291 298 305 311 317 322 326 326 325 325 323 322 321 315 307 301 297 290 279 268 263 260 256 253 252 251 248 245 244 247 252 257 261 262 262 263 263 261 260 259 256 252 249 250 257 260 262 263 261 255
249 248 244 243 246 248 250 251 254 259 266 274 282 291 301 311 319 324 326 327 326 324 322 322 320 319 316 312 306 300 295 285 276 271 269 266 260 254 251 250 247 242 240 245 250 254 259 262 261 262 262 261 260 259 257 252 250 255 260 260 258 258 254
250 249 244 242 242 242 245 248 253 260 267 276 287 298 310 319 324 326 327 325 323 321 319 318 318 317 314 310 306 303 299 292 285 281 281 280 275 266 257 251 249 246 240 240 244 248 254 262 264 262 260 260 260 259 257 254 251 253 258 259 258 256 254
247 248 245 244 242 240 242 246 252 261 270 281 294 306 315 322 324 324 323 321 318 316 315 313 310 307 304 300 298 298 296 294 291 291 292 290 286 282 274 262 253 249 244 240 240 242 244 253 263 266 263 261 259 258 256 255 253 254 258 261 260 257 255
243 244 245 245 244 243 244 248 255 265 277 289 302 313 317 319 320 318 316 315 312 310 307 303 298 295 293 292 291 290 291 292 293 295 296 294 291 289 287 281 268 256 249 243 241 240 240 243 250 261 269 268 262 257 254 255 256 256 259 262 262 260 257
239 240 242 243 245 246 248 253 260 270 283 296 305 311 313 314 313 312 310 308 306 303 298 294 293 293 294 293 291 290 290 291 292 294 294 292 290 289 288 287 283 272 260 250 243 240 240 241 244 249 258 267 269 264 257 256 259 260 260 261 262 261 258
235 237 239 241 244 247 251 255 263 274 285 295 301 304 307 308 307 306 304 302 299 296 294 293 294 296 299 299 297 295 294 293 292 291 290 287 286 285 285 285 285 282 275 264 252 243 240 241 243 246 249 254 263 268 265 260 260 260 261 261 261 259 257
232 233 236 239 242 245 251 255 263 274 283 289 296 300 302 302 301 300 298 297 295 294 293 295 298 300 303 303 302 301 299 297 295 293 291 288 286 283 283 283 282 281 279 275 267 254 244 241 241 244 247 250 254 260 265 266 263 259 258 259 261 259 258
227 229 232 236 239 243 247 253 262 271 281 289 294 297 298 297 297 297 296 296 294 293 294 295 297 298 299 300 299 297 296 294 294 293 292 291 289 287 286 286 285 283 280 277 275 267 256 247 244 243 243 245 250 256 260 267 270 266 259 256 258 261 261
219 223 228 231 235 240 244 253 264 274 283 291 294 295 296 298 299 298 298 297 296 295 296 296 295 295 295 295 293 291 289 288 288 287 286 286 284 283 282 282 282 282 281 279 277 274 267 257 250 246 243 242 245 250 254 260 267 271 267 259 258 261 262
214 217 222 226 231 237 245 257 269 280 288 292 293 295 297 299 301 300 298 298 297 299 301 300 298 296 294 291 289 287 285 283 283 283 283 282 281 280 278 277 276 275 276 276 275 274 272 267 260 252 246 243 243 246 248 251 255 263 268 265 262 260 258
211 213 216 220 227 237 250 266 279 286 289 291 293 295 298 299 298 296 296 296 297 301 303 302 298 296 295 292 289 288 286 283 281 280 280 281 282 282 283 282 281 279 276 274 273 271 270 269 268 262 253 246 243 244 246 247 247 251 259 263 263 262 258
207 209 212 218 228 242 262 278 284 285 286 290 293 293 293 292 290 290 292 294 298 302 303 302 301 300 300 300 298 296 293 289 285 282 280 280 279 280 282 281 281 281 280 278 276 273 270 268 267 266 264 256 247 243 243 246 248 247 251 257 259 260 261
204 208 213 221 236 258 276 281 280 281 285 289 290 289 287 286 287 290 293 297 300 302 304 305 305 303 302 302 301 299 297 294 290 286 284 282 280 279 279 279 278 277 276 276 277 275 273 271 267 264 265 266 259 249 243 244 246 246 248 252 255 256 257
204 210 216 228 254 273 278 277 275 280 288 290 287 286 286 286 288 293 297 301 302 303 305 305 303 301 300 299 298 296 294 293 290 289 287 286 285 283 281 280 279 276 274 273 272 272 273 274 273 269 264 261 260 259 252 246 245 246 247 248 250 252 254
202 206 219 245 270 275 275 276 279 285 291 287 282 283 286 290 296 300 303 304 303 303 303 302 299 297 297 296 296 294 292 291 289 289 288 288 287 286 284 282 281 279 277 274 270 268 268 269 270 270 267 260 253 253 254 250 245 245 247 248 249 250 251
200 208 234 261 269 272 275 278 281 279 274 273 278 286 293 298 302 304 305 305 304 302 300 297 294 294 294 293 293 293 292 291 291 290 290 290 289 288 286 283 282 280 279 277 275 272 269 268 266 265 266 264 256 248 246 246 244 242 244 247 250 252 253
202 223 259 266 264 268 271 268 265 262 265 274 284 291 296 299 302 305 307 307 306 303 301 298 295 294 293 293 294 294 293 293 293 293 293 293 291 289 286 283 281 279 278 277 276 275 273 270 266 263 263 264 261 254 246 243 242 240 241 243 246 250 253
210 238 251 251 251 251 252 253 260 268 276 284 290 294 298 302 306 310 312 310 307 304 302 300 298 295 294 294 295 294 294 294 294 295 296 295 293 291 288 284 281 278 276 276 274 272 270 268 265 263 262 262 264 260 249 242 241 241 241 242 242 244 248
215 223 226 234 242 247 256 265 272 280 286 289 293 298 304 310 315 319 319 317 314 311 309 306 302 298 296 295 294 292 292 293 294 295 296 296 295 293 290 288 284 279 277 276 274 270 266 263 262 262 261 259 261 260 254 246 244 245 245 245 244 242 242
213 220 234 250 259 267 275 281 284 290 294 295 300 310 316 320 323 326 326 325 323 321 318 315 312 307 301 297 294 292 292 292 293 296 297 296 295 294 292 289 286 282 280 277 276 273 268 261 258 258 257 256 256 258 258 253 247 247 249 249 247 243 242
190 213 272 282 291 302 305 298 295 297 298 299 309 321 327 329 331 333 334 332 328 325 321 318 316 314 309 305 302 300 297 295 296 298 297 295 294 293 292 290 286 283 281 279 276 274 271 265 259 255 254 254 255 258 262 259 252 247 246 248 250 246 244
100 40 10 348 337 333 321 302 296 295 295 299 312 324 327 328 334 338 338 336 331 328 325 321 319 318 316 313 311 307 302 300 301 300 297 295 294 292 291 290 287 283 279 278 276 274 271 267 263 258 254 254 256 259 261 262 261 254 245 242 247 246 244
36 20 6 349 348 337 313 303 298 295 296 305 317 325 323 324 333 338 337 335 333 331 329 326 323 323 322 319 316 312 308 306 305 303 299 296 295 294 292 290 288 284 278 274 272 271 269 266 264 260 256 254 255 256 258 259 262 260 248 240 242 244 245
22 16 342 345 7 350 320 311 302 298 305 316 324 326 323 324 334 339 337 335 335 334 332 329 327 326 326 324 321 317 314 311 308 305 302 299 297 296 293 291 289 285 279 273 268 266 265 264 263 263 260 256 253 252 254 255 256 258 251 241 238 239 242